TimeEST,TemperatureF,Dew PointF,Humidity,Sea Level PressureIn,VisibilityMPH,Wind Direction,Wind SpeedMPH,Gust SpeedMPH,PrecipitationIn,Events,Conditions,WindDirDegrees,DateUTC
12:51 AM,32.0,23.0,69,29.78,10.0,WNW,10.4,-,0.00,Snow,Light Snow,300,2013-03-02 05:51:00
1:51 AM,30.9,23.0,72,29.78,10.0,WNW,10.4,-,0.00,Snow,Light Snow,300,2013-03-02 06:51:00
2:51 AM,30.0,24.1,79,29.78,9.0,WNW,9.2,-,0.00,Snow,Light Snow,290,2013-03-02 07:51:00
3:51 AM,30.0,23.0,75,29.78,10.0,WNW,8.1,-,0.00,Snow,Light Snow,290,2013-03-02 08:51:00
4:51 AM,30.0,23.0,75,29.78,10.0,NW,9.2,-,0.00,Snow,Light Snow,320,2013-03-02 09:51:00
5:51 AM,28.9,21.9,75,29.78,10.0,WNW,10.4,-,0.00,,Overcast,300,2013-03-02 10:51:00
6:51 AM,28.9,21.0,72,29.78,10.0,WNW,9.2,-,N/A,,Overcast,300,2013-03-02 11:51:00
7:51 AM,28.9,21.0,72,29.79,10.0,WNW,8.1,-,0.00,Snow,Light Snow,290,2013-03-02 12:51:00
8:51 AM,30.0,21.0,69,29.79,10.0,NW,10.4,-,0.00,Snow,Light Snow,310,2013-03-02 13:51:00
9:51 AM,30.9,21.0,67,29.79,8.0,NW,12.7,-,0.00,Snow,Light Snow,310,2013-03-02 14:51:00
10:51 AM,32.0,21.9,66,29.78,9.0,WNW,13.8,-,0.00,Snow,Light Snow,300,2013-03-02 15:51:00
11:51 AM,34.0,21.9,61,29.77,10.0,NW,13.8,-,0.00,,Overcast,310,2013-03-02 16:51:00
12:51 PM,34.0,21.9,61,29.75,10.0,WNW,10.4,-,N/A,,Overcast,290,2013-03-02 17:51:00
1:51 PM,35.1,23.0,61,29.73,10.0,West,11.5,-,N/A,,Mostly Cloudy,280,2013-03-02 18:51:00
2:51 PM,35.1,21.9,59,29.73,10.0,WNW,12.7,-,N/A,,Mostly Cloudy,300,2013-03-02 19:51:00
3:51 PM,33.1,21.9,64,29.74,10.0,WNW,12.7,20.7,N/A,,Overcast,300,2013-03-02 20:51:00
4:51 PM,30.9,21.0,67,29.75,8.0,NW,10.4,21.9,0.00,Snow,Light Snow,310,2013-03-02 21:51:00
5:08 PM,30.2,21.2,69,29.74,2.5,NW,11.5,-,0.00,Snow,Light Snow,320,2013-03-02 22:08:00
5:26 PM,30.2,21.2,69,29.75,3.0,WNW,6.9,-,0.00,Snow,Light Snow,300,2013-03-02 22:26:00
5:51 PM,28.9,21.0,72,29.77,3.0,WNW,9.2,-,0.00,Snow,Light Snow,300,2013-03-02 22:51:00
6:04 PM,28.4,21.2,74,29.76,8.0,WNW,11.5,17.3,0.00,Snow,Light Snow,290,2013-03-02 23:04:00
6:51 PM,28.0,21.0,75,29.78,10.0,NW,9.2,-,0.00,Snow,Light Snow,310,2013-03-02 23:51:00
7:51 PM,27.0,21.0,78,29.78,10.0,WNW,9.2,-,0.00,Snow,Light Snow,300,2013-03-03 00:51:00
8:51 PM,27.0,21.0,78,29.80,7.0,WNW,6.9,-,0.00,Snow,Light Snow,290,2013-03-03 01:51:00
9:51 PM,26.1,21.0,81,29.79,4.0,WNW,6.9,-,0.00,Snow,Light Snow,300,2013-03-03 02:51:00
10:51 PM,25.0,19.9,81,29.78,5.0,WNW,8.1,-,0.01,Snow,Light Snow,290,2013-03-03 03:51:00
11:51 PM,25.0,19.0,78,29.77,10.0,NW,9.2,-,0.00,Snow,Light Snow,310,2013-03-03 04:51:00